Location: Newark
(12.4436°N, 0.6167°W)
Time: 21:15:29
(UTC+00:00)

Vanguard 2 - Pass Details

Date: 08 December 2019
Orbit: 553 x 2938 km, 32.9° (Epoch: 18 January)

Event Time Altitude Azimuth Distance (km) Brightness Sun altitude
Rises 07:30:11 0° 304° (NW) 6,654 11.7 16.5°
Reaches altitude 10° 07:35:13 10° 309° (NW) 5,443 11.3 17.5°
Maximum altitude 07:50:00 51° 21° (NNE) 2,411 10.2 20.7°
Drops below altitude 10° 07:59:17 10° 95° (E) 3,538 12.2 22.6°
Sets 08:01:49 0° 101° (E) 4,241 12.5 23.1°
